Flag for American Samoa Weather past 2 weeks in Pago Pago, American Samoa

Now
80 °F

Partly cloudy.


Feels Like: 84 °F
Forecast: 77 / 81 °F
Wind: 6 mph from Southeast

Location: Pago Pago / Int. Airp.

Current Time: Aug 21, 2014 at 10:52:06 PM

Latest Report: Aug 21, 2014 at 9:53 PM


Visibility: 10 mi

Pressure: 29.93 "Hg

Humidity: 83%

Dew point: 74 °F

Location of Pago PagoLocation

Historic Weather in Pago Pago — Graph

°F

Pago Pago temperature yesterday

Maximum temperature yesterday: 85 °F (at 12:50 PM)
Minimum temperature yesterday: 77 °F (at 6:50 AM)
Average temperature yesterday: 80 °F

Past Weeks' High & Low Weather Summary

 TemperatureHumidityPressure
High88 °F (Aug 11, 10:51 AM)98% (Aug 12, 12:50 AM)30.01 "Hg (Aug 12, 12:50 AM)
Low73 °F (Aug 19, 6:55 PM)66% (Aug 16, 4:54 PM)29.83 "Hg (Aug 15, 2:52 PM)
Average81 °F83%29.91 "Hg
* Reported Aug 6 9:50 PM — Aug 21 9:53 PM, Pago Pago, Weather by CustomWeather, © 2014

Note: Actual official high and low records may vary slightly from our data, if they occured in-between our weather recording intervals... More about our weather records

Advertising

Pago Pago weather history for previous 24 hours

 ConditionsComfort  
Time TempWeatherWind HumidityBarometerVisibility
9:53 PM
Aug 21
80 °FPartly cloudy.6 mph83%29.93 "Hg10 mi
8:51 PM80 °FPartly cloudy.5 mph83%29.93 "Hg10 mi
6:50 PM81 °FPartly cloudy.8 mph82%29.90 "Hg10 mi
5:55 PM82 °FBroken clouds.8 mph82%29.88 "Hg12 mi
4:50 PM83 °FBroken clouds.8 mph79%29.86 "Hg12 mi
3:53 PM84 °FBroken clouds.9 mph76%29.85 "Hg12 mi
2:50 PM86 °FScattered clouds.13 mph75%29.85 "Hg12 mi
1:52 PM86 °FScattered clouds.14 mph72%29.86 "Hg12 mi
12:50 PM86 °FScattered clouds.14 mph74%29.88 "Hg12 mi
11:51 AM85 °FScattered clouds.14 mph76%29.92 "Hg12 mi
10:54 AM86 °FScattered clouds.15 mph74%29.95 "Hg12 mi
9:57 AM85 °FBroken clouds.15 mph76%29.97 "Hg12 mi
8:53 AM84 °FScattered clouds.12 mph77%29.96 "Hg12 mi
7:50 AM82 °FBroken clouds.13 mph81%29.96 "Hg12 mi
6:50 AM80 °FScattered clouds.13 mph85%29.93 "Hg12 mi
5:54 AM80 °FPassing clouds.10 mph85%29.91 "Hg11 mi
4:50 AM79 °FPassing clouds.10 mph85%29.90 "Hg10 mi
3:50 AM79 °FPassing clouds.12 mph86%29.89 "Hg10 mi
12:50 AM78 °FPassing clouds.3 mph84%29.91 "Hg10 mi
10:50 PM
Aug 20
79 °FPartly cloudy.3 mph84%29.93 "Hg10 mi
Weather by CustomWeather, © 2014

See weather overviewHow to use our weather pages